Tracking 19638 objects as of 21-Apr-2019
HD Live streaming from Space Station
objects crossing your sky now

LEASAT 5

Track LEASAT 5 now!
LEASAT 5 is classified as:


NORAD ID: 20410
Int'l Code: 1990-002B
Perigee: 35,947.1 km
Apogee: 36,022.4 km
Inclination: 11.8 °
Period: 1,445.9 minutes
Semi major axis: 42355 km
RCS: 12.5892 m2 (large)
Launch date: January 9, 1990
Source: United States (US)
Launch site: AIR FORCE EASTERN TEST RANGE (AFETR)

Ultra High Frequency (UHF) satellite communications services to Australia; leased at end of use by U.S. Navy to Royal Australian Navy.
aabbcc
Your satellite tracking list
Your tracking list is empty




NASA's NSSDC Master Catalog

Two Line Element Set (TLE):
1 20410U 90002B   19110.61274321 -.00000304 +00000-0 +00000-0 0  9994
2 20410 011.7823 006.5095 0008889 352.6370 183.5825 00.99594320092380
Source of the keplerian elements: AFSPC